close

Jackpot

Texas Poker Multi Jackpot System

Kini Telah hadir Jackpot SUPER ROYAL FLUSH

Kini Telah hadir Jackpot 2000 (khusus table VIP keatas).

Ikutilah global jackpot yang tersedia di system kami, dengan system jackpot terbaru dan pertama di indonesia, anda dapat membeli jackpot dengan harga 100 rupiah saja dan menangkan hadiahnya hingga puluhan juta rupiah.

Jackpot bukanlah suatu keharusan untuk dibeli, namun kami memberikan suatu fitur tambahan untuk member tercinta dari www.motobolapoker.club.

Terdapat tiga pilihan harga jackpot yang bisa anda beli yaitu :100,500,1000 dan 2000(khusus table VIP Keatas) rupiah.

Hadiah dari Multi jackpot system www.motobolapoker.club

  1. full house x 10 harga jackpot yang anda beli.
      (contoh:anda membeli 1000 maka:1000 X10 = 10.000)
  2. four of kind x 250 harga jackpot yang anda beli
      (contoh:anda membeli 1000 maka:1000 X250 = 250.000)
  3. Straight flush x 1200
      (contoh:anda membeli 1000 maka:1000 X1200 = 1.200.000)
  4. Royal flush x 10000 harga jackpot yang anda beli
      (contoh:anda membeli 1000 maka:1000 X10000 = 10.000.000)
  5. SUPER ROYAL FLUSH x 30000 harga jackpot yang anda beli
      (contoh:anda membeli 1000 maka:1000 X30000 = 30.000.000)

Kondisi kartu

  1. full house adalah kondisi kartu dimana kartu anda dan kartu tengah dengan total 7 kartu bisa mendapatkan nilai 5 kartu dengan kombinasi 1 tris(three of kind) dan 1 pair, contoh 3 kartu 10 dan 2 kartu 5
  2. Four of kind adalah kondisi kartu dimana kartu anda dan kartu tengah dengan total 7 kartu bisa mendapatkan nilai 5 kartu dengan kombinasi 4 kartu yang sama jumlah dan 1 kartu apapun juga contoh anda mendapatkan 4 buah kartu angka 3 dan 1 kartu apapun.
  3. Staright flush adalah kondisi kartu dimana kartu anda dan kartu tengah dengan total 7 kartu bisa mendapatkan nilai 5 kartu dengan kombinasi seri / staright dengan kembang yang sama contoh : urutan kartu dari angka 5, 6, 7, 8 , 9 10 dengan kembang yg sama misalnya as hati
  4. Royal flush adalah kondisi kartu dimana kartu anda dan kartu tengah dengan total 7 kartu bisa mendapatkan nilai 5 kartu dengan kombinasi seri / staright dengan kembang yang sama tetapi kartu tersebut haruslah dimulai dari 10. contoh 10, Queen, Jack, King dan aces dengan kembang yang sama
  5. Super Royal flush adalah kondisi kartu dimana Kedua kartu anda digabung dengan 3 kartu pertama meja haruslah royal flush. contoh kartu anda 10,Queen kembang sama dan 3 kartu pertama meja adalah Jack, King dan aces dengan kembang yang sama

Demikian adalah penjelasan dari Multi Jackpot www.motobolapoker.club terima kasih dan selamat bermain salam hoki dari kami

Texas Poker Jackpot Winner

TOP SUPER ROYAL FLUSH
No.TanggalNamaPriceWin
121/09 07:46AKABAD1Super Royal flush15,000,000
221/09 04:40DRAKULA999Super Royal flush6,000,000
320/09 23:08CIPAPOH98Super Royal flush15,000,000
420/09 21:04DKGAM05Super Royal flush30,000,000
520/09 19:13OGENK1Super Royal flush6,000,000
TOP ROYAL FLUSH
No.TanggalNamaPriceWin
122/09 00:38PTMENANG31Royal flush10,000,000
222/09 00:38BAAGONG8Royal flush1,000,000
321/09 23:53BANKLOWRoyal flush5,000,000
421/09 23:39CF7BA8ABRoyal flush2,000,000
521/09 23:10TNYURI99Royal flush5,000,000
TOP STRAIGHT FLUSH
No.TanggalNamaPriceWin
122/09 00:38AAAA2018Straight Flush1,200,000
222/09 00:33ITA7777Straight Flush240,000
322/09 00:32BR44VO009Straight Flush600,000
422/09 00:29E619C0F9Straight Flush120,000
522/09 00:28IMUN27Straight Flush600,000
LATEST JACKPOT
No.TanggalNamaPriceWin
122/09 00:38BAGOLJELEBFull House5,000
222/09 00:38TLBFIRW8OUFull House1,000
322/09 00:38PTMENANG31Royal flush10,000,000
422/09 00:38ISJPOLLFull House5,000
522/09 00:38RIAN19QQFull House2,000
622/09 00:38ANDRIS11Full House2,000
722/09 00:38DODIF140Full House10,000
822/09 00:38CHENG888Full House1,000
922/09 00:38G4G4HH99Full House5,000
1022/09 00:38PELISFull House5,000
1122/09 00:38HANS77Full House10,000
1222/09 00:38SIRASI22Full House1,000
1322/09 00:38OFLENEFull House2,000
1422/09 00:38WBD07BL29JFull House10,000
1522/09 00:38DEWA3030Full House1,000
1622/09 00:38MABOY805Full House2,000
1722/09 00:38EDWIN123Full House5,000
1822/09 00:38TEMP078Full House1,000
1922/09 00:38BABEPOKEPFull House2,000
2022/09 00:38OMSANJOTFull House20,000
2122/09 00:38HIU77Full House2,000
2222/09 00:38LHEO007Full House2,000
2322/09 00:38WANK29Full House500
2422/09 00:38PSPT72Full House1,000
2522/09 00:38TOGO12Full House1,000
2622/09 00:38SOEKABUM1Full House1,000
2722/09 00:38BAOZHAI89Full House5,000
2822/09 00:38BAAGONG8Royal flush1,000,000
2922/09 00:38YUHFull House5,000
3022/09 00:38NGACENG58Full House10,000
3122/09 00:38DERLYAAJAFull House1,000
3222/09 00:38B45ONEFull House2,000
3322/09 00:38OZJANFull House10,000
3422/09 00:38ACIEL_ARRFull House5,000
3522/09 00:38VANBAVINKFull House2,000
3622/09 00:38BENGAM86Full House5,000
3722/09 00:38BP881827Full House10,000
3822/09 00:38SOUL51Full House2,000
3922/09 00:38AAAA2018Straight Flush1,200,000
4022/09 00:38EB7A1A2FFull House2,000
4122/09 00:38WASQUMFull House5,000
4222/09 00:38SETANBODOHFull House10,000
4322/09 00:37KUNC0N99Full House1,000
4422/09 00:37SIN9428Full House1,000
4522/09 00:37MPEKENAKFull House5,000
4622/09 00:37F482EA39Full House1,000
4722/09 00:37THAA1706Full House2,000
4822/09 00:37J_ELLO99Full House2,000
4922/09 00:37KUNTICSFull House1,000
5022/09 00:37SEMBILAN71Full House2,000

Domino Multi Jackpot System

Ikutilah global jackpot yang tersedia di system kami, dengan system jackpot terbaru dan pertama di indonesia, anda dapat membeli jackpot dengan harga 100 rupiah saja dan menangkan hadiahnya hingga puluhan juta rupiah.

Jackpot bukanlah suatu keharusan untuk dibeli, namun kami memberikan suatu fitur tambahan untuk member tercinta dari www.motobolapoker.club.

Terdapat tiga pilihan harga jackpot yang bisa anda beli yaitu :100,500 dan 1000 rupiah.

Hadiah dari Multi jackpot system www.motobolapoker.club

  1. Murni Kecil x 50 harga jackpot yang anda beli.
      (contoh:anda membeli 1000 maka:1000 X 50 = 50.000)
  2. Murni Besar x 50 harga jackpot yang anda beli
      (contoh:anda membeli 1000 maka:1000 X 50 = 50.000)
  3. BALAK x 100 harga jackpot yang anda beli
      (contoh:anda membeli 1000 maka:1000 X 100 = 100.000)
  4. ENAM DEWA x 6666 harga jackpot yang anda beli
      (contoh:anda membeli 1000 maka:1000 X 6666 = 6.666.000)

Demikian adalah penjelasan dari Multi Jackpot www.motobolapoker.club terima kasih dan selamat bermain salam hoki dari kami

Domino Jackpot Winner

TOP ENAM DEWA
No.TanggalNamaPriceWin
121/09 23:11HERM4N09murni enam666,600
221/09 22:50C4NGCUT321murni enam6,666,000
321/09 21:52BORAS90murni enam666,600
421/09 17:13RATTIH99murni enam3,333,000
521/09 16:18SEPTIAN94murni enam6,666,000
TOP BALAK
No.TanggalNamaPriceWin
122/09 00:36PUZYbalak50,000
222/09 00:32T4C1R1Xbalak50,000
322/09 00:29SRI1313balak100,000
422/09 00:29MAKASIHHHHbalak10,000
522/09 00:28D3W4KOEbalak10,000
LATEST JACKPOT
No.TanggalNamaPriceWin
122/09 00:38O11B9TPF7Wmurni kecil50,000
222/09 00:38MARYANTO70murni kecil50,000
322/09 00:37TAM_77murni kecil25,000
422/09 00:37QIMPET22murni besar5,000
522/09 00:36KERDONmurni besar50,000
622/09 00:36DN4DBOBY3031murni besar5,000
722/09 00:36PUZYbalak50,000
822/09 00:36YVFF9GHDUVmurni kecil5,000
922/09 00:35HK52murni kecil50,000
1022/09 00:34IZAK299murni kecil5,000
1122/09 00:34SANGU017murni kecil5,000
1222/09 00:34WDW999murni kecil5,000
1322/09 00:33TGMJAYAOKmurni besar50,000
1422/09 00:33LAPATAU9QQmurni kecil5,000
1522/09 00:33BATEH99murni besar25,000
1622/09 00:32T4C1R1Xbalak50,000
1722/09 00:32ACIL66murni besar5,000
1822/09 00:31SEPATU22murni kecil50,000
1922/09 00:30PEPENK_69murni kecil5,000
2022/09 00:29WIK1WT22ZPmurni kecil50,000
2122/09 00:29SRI1313balak100,000
2222/09 00:29SET7murni besar5,000
2322/09 00:29MAKASIHHHHbalak10,000
2422/09 00:29BRO3Rmurni besar50,000
2522/09 00:28WITONOmurni kecil25,000
2622/09 00:28D3W4KOEbalak10,000
2722/09 00:28PVDOANKbalak100,000
2822/09 00:27KEMOT46murni besar25,000
2922/09 00:27BORET87murni kecil25,000
3022/09 00:27BJKLAUT9murni kecil50,000
3122/09 00:27B14KL4Hmurni besar25,000
3222/09 00:26SIJEK88murni kecil25,000
3322/09 00:25RAMSAYY8murni besar50,000
3422/09 00:25NANI099murni besar25,000
3522/09 00:25KEREEEEbalak10,000
3622/09 00:24DENNYSmurni besar50,000
3722/09 00:24TGMJAYAOKbalak100,000
3822/09 00:24RAJAWALI02murni besar50,000
3922/09 00:24N7U0HLNIKVbalak10,000
4022/09 00:24AGAMHKNmurni besar50,000
4122/09 00:23KOPETEN99murni kecil50,000
4222/09 00:23PENGENWD3murni kecil5,000
4322/09 00:23SUMA4536balak100,000
4422/09 00:23RUNAI08murni besar5,000
4522/09 00:23WDW999balak10,000
4622/09 00:22NGAPUNGGmurni kecil25,000
4722/09 00:20DATUX45murni besar5,000
4822/09 00:20LAVENDER12murni kecil25,000
4922/09 00:19AINGACILmurni besar50,000
5022/09 00:19JACE888murni kecil50,000

Ceme Multi Jackpot System

Jackpot dilihat dari gabungan kartu pemain dengan kartu bandar. Bandar harus membeli jackpot sebanyak jumlah player yang sedang duduk. Sebagai contoh bila terdapat 3 pemain duduk bermain, dan bandar memutuskan untuk membeli jackpot Rp 1.000, maka pada periode tersebut bandar akan membeli jackpot sebanyak 3xRp1.000 = Rp3.000.

Jackpot bukanlah suatu keharusan untuk dibeli, namun kami memberikan suatu fitur tambahan untuk member tercinta dari www.motobolapoker.club.

Terdapat tiga pilihan harga jackpot yang bisa anda beli yaitu :100,500 dan 1000 rupiah.

Hadiah dari Multi jackpot system www.motobolapoker.club

  1. Murni Kecil x 50 harga jackpot yang anda beli.
      (contoh:anda membeli 1000 maka:1000 X 50 = 50.000)
  2. Murni Besar x 50 harga jackpot yang anda beli
      (contoh:anda membeli 1000 maka:1000 X 50 = 50.000)
  3. BALAK x 200 harga jackpot yang anda beli
      (contoh:anda membeli 1000 maka:1000 X 200 = 200.000)
  4. ENAM DEWA x 6666 harga jackpot yang anda beli
      (contoh:anda membeli 1000 maka:1000 X 6666 = 6.666.000)

Demikian adalah penjelasan dari Multi Jackpot www.motobolapoker.club terima kasih dan selamat bermain salam hoki dari kami

Ceme Jackpot Winner

TOP ENAM DEWA
No.TanggalNamaPriceWin
122/09 00:33LAPIOK12murni enam666,600
222/09 00:25JIMMY056murni enam666,600
322/09 00:21KOMLEK88murni enam6,666,000
422/09 00:13TYO75murni enam6,666,000
522/09 00:13AKUMBAHmurni enam6,666,000
TOP BALAK
No.TanggalNamaPriceWin
122/09 00:37RUDY1992balak100,000
222/09 00:37KASI88balak200,000
322/09 00:37FADIEL08balak200,000
422/09 00:37YOGGI93balak200,000
522/09 00:37EMMUT98balak200,000
LATEST JACKPOT
No.TanggalNamaPriceWin
122/09 00:38EDENK93murni besar25,000
222/09 00:38ROMENHOLYmurni besar50,000
322/09 00:38TAGOORmurni kecil50,000
422/09 00:38MBAH_BEDJOmurni kecil25,000
522/09 00:38JOSPIY53murni kecil50,000
622/09 00:38CABE8910murni besar50,000
722/09 00:38CABE8910murni besar50,000
822/09 00:38BLU234murni kecil5,000
922/09 00:38LB882183murni kecil50,000
1022/09 00:38CBPAUSmurni kecil50,000
1122/09 00:37RUDY1992balak100,000
1222/09 00:37KASI88balak200,000
1322/09 00:37FADIEL08balak200,000
1422/09 00:37SEMEDO02murni besar25,000
1522/09 00:37YOGGI93balak200,000
1622/09 00:37NONVV1601murni kecil25,000
1722/09 00:37WAKHIDFImurni besar50,000
1822/09 00:37EMMUT98balak200,000
1922/09 00:37FAHRUZZmurni besar5,000
2022/09 00:37DUJENmurni besar50,000
2122/09 00:37NCVbalak200,000
2222/09 00:37LB88992murni kecil50,000
2322/09 00:36H4JIEbalak200,000
2422/09 00:36WIP86balak200,000
2522/09 00:36MASROY76murni kecil25,000
2622/09 00:36BATUBARA22murni kecil50,000
2722/09 00:36MOU_99murni kecil5,000
2822/09 00:36AA5E54B7balak20,000
2922/09 00:36FBR522balak200,000
3022/09 00:36DEMAK007murni besar50,000
3122/09 00:36PANTEL07murni kecil50,000
3222/09 00:36BC8C126Fmurni kecil50,000
3322/09 00:36D0Z774LCTDmurni besar25,000
3422/09 00:36KASI88murni kecil5,000
3522/09 00:36FADIEL08murni kecil50,000
3622/09 00:36REIZAL11murni kecil50,000
3722/09 00:36BOTANICALbalak200,000
3822/09 00:36KUDUHASIL6balak200,000
3922/09 00:35KAMILA25murni besar5,000
4022/09 00:35S4M4N3P155murni besar5,000
4122/09 00:35ARJOJEGEGmurni kecil25,000
4222/09 00:35THA1murni kecil5,000
4322/09 00:35YANB00Kmurni kecil5,000
4422/09 00:35AL_VIANmurni kecil50,000
4522/09 00:35SKXXO8DWXCmurni besar50,000
4622/09 00:34CBPAUSmurni kecil50,000
4722/09 00:34EDENK93murni besar25,000
4822/09 00:34GRONX998murni besar50,000
4922/09 00:34YANDI08murni besar50,000
5022/09 00:34CESA1202murni kecil50,000